CAPE
1 23 33 28 13 6 4 0 0 0 0 0 0 0 0 0 0 0 0 0 0 0 0 0 0 0 0 0 0 0 0 0 0 0 0 0 0 0 0 0 0 0 0 0
2 5 29 26 10 5 0 0 0 0 0 0 0 0 0 0 0 0 0 0 0 0 0 0 0 0 0 0 0 0 0 0 0 0 0 0 0 0 0 0 0 0 0 0
12 0 12 16 12 0 2 0 0 0 7 0 0 0 0 0 0 0 0 0 0 0 0 0 0 0 0 0 0 0 0 0 0 0 0 0 0 0 0 0 0 0 0 0
16 0 0 10 22 4 2 0 0 0 5 1 0 0 0 0 0 0 0 0 0 0 0 0 0 0 0 0 0 0 0 0 0 0 0 0 0 0 0 0 0 0 0 0
19 9 0 2 12 30 0 0 0 0 0 0 0 0 0 0 0 0 0 0 0 0 0 0 0 0 0 0 0 0 0 0 0 0 0 0 0 0 0 0 0 0 0 0
11 24 2 2 14 21 0 0 0 0 0 0 0 0 0 0 0 0 0 0 0 0 0 0 0 0 0 0 0 0 0 0 0 0 0 0 0 0 0 0 0 0 0 0
51 16 11 0 3 19 2 0 0 0 0 0 0 0 0 0 0 0 0 0 0 0 0 0 0 0 0 0 0 0 0 0 0 0 0 0 0 0 0 0 0 0 0 0
58 64 67 36 1 19 1 1 0 0 0 0 0 0 0 0 0 0 0 0 0 0 0 0 0 0 0 0 0 0 0 0 0 0 0 0 0 0 0 0 0 0 0 0
11 7 5 11 24 15 5 2 3 0 0 0 0 0 5 0 0 0 0 0 0 0 0 0 0 0 0 0 0 0 0 0 0 0 0 0 0 0 0 0 0 0 0 0
76 52 11 6 10 24 5 2 2 0 2 0 0 0 0 0 0 0 0 0 0 0 0 0 0 0 0 0 0 0 0 0 0 0 0 0 0 0 0 0 0 0 0 0
76 74 71 39 7 12 0 0 1 4 0 0 0 3 0 0 0 5 0 0 0 0 0 0 0 0 0 0 0 0 0 0 0 0 0 0 0 0 0 0 0 0 0 0
71 73 59 50 36 16 7 0 1 3 2 0 0 0 0 0 0 0 0 0 0 0 0 0 0 0 0 0 0 0 0 0 0 0 0 0 0 0 0 0 0 0 0 0
58 73 72 68 64 62 40 0 0 2 5 0 0 0 0 0 0 0 0 0 0 0 0 0 0 0 0 0 0 0 0 0 0 0 0 0 0 0 0 0 0 0 0 0
11 35 53 71 68 87 99 0 0 0 0 0 0 0 0 0 0 0 0 0 0 0 3 1 0 0 0 0 0 0 0 0 0 0 0 0 0 0 0 0 0 0 0 0
7 6 15 54 64 72 91 0 1 0 0 0 0 0 0 0 0 0 0 0 0 0 2 0 0 0 0 0 0 0 0 0 0 0 0 0 0 0 0 0 0 0 0 0
5 8 8 37 58 97 1 0 0 0 0 0 0 0 0 0 0 0 0 0 1 0 0 0 0 0 1 0 0 0 0 0 0 0 0 0 0 0 0 0 0 0 0 0
12 11 10 12 60 54 0 0 0 0 0 0 0 0 0 0 0 0 0 0 0 0 0 2 0 0 0 0 0 0 0 0 0 0 0 0 0 0 0 0 0 0 0 0
18 17 18 16 63 80 0 0 2 0 0 0 0 0 0 0 0 0 0 0 0 3 0 0 3 0 0 0 0 0 0 0 0 0 0 0 0 0 0 0 0 0 0 0
20 22 23 40 28 0 0 0 4 0 0 0 0 0 0 0 0 0 0 0 6 8 1 6 17 0 0 0 0 0 0 0 0 0 0 0 0 0 0 0 0 0 0 0
18 21 21 13 0 4 5 1 0 0 0 0 0 0 0 0 0 0 0 5 9 21 7 15 11 0 0 0 0 0 0 0 0 0 0 0 0 0 0 0 0 0 0 0
5 3 4 0 5 0 0 0 0 0 0 0 0 0 0 0 0 0 0 0 0 3 3 5 8 0 0 0 0 0 0 0 0 0 0 0 0 0 0 0 0 0 0 0
1 0 0 0 0 0 0 0 0 0 0 0 0 0 0 0 0 0 0 0 5 0 0 2 0 0 0 0 0 0 0 0 0 0 0 0 0 0 0 0 0 0 0 0
0 0 0 0 0 0 0 0 0 0 0 0 0 0 0 0 0 0 0 0 0 0 39 7 0 0 0 0 0 0 0 0 0 0 0 0 0 0 0 0 0 0 0 0
0 0 0 0 0 0 0 0 0 0 0 0 0 0 0 0 0 0 0 0 2 4 0 0 0 0 0 0 0 0 0 0 0 0 0 0 0 0 0 0 0 0 0 0
0 0 0 0 0 0 0 0 0 0 0 0 0 0 0 2 0 0 0 1 0 3 0 0 0 0 0 0 0 0 0 0 0 0 0 0 0 0 0 0 0 0 0 0
0 0 0 0 0 0 0 0 0 0 0 0 0 0 0 0 0 1 5 0 0 0 0 0 0 0 0 0 0 0 0 0 0 0 0 0 0 0 0 0 0 0 0 0
0 0 0 0 0 0 0 0 0 0 0 0 0 0 0 0 0 0 0 0 0 0 0 0 0 0 0 0 0 0 0 0 0 0 0 0 0 0 0 0 0 0 0 0
CIN
-4 0 0 -4 -2 -3 0 0 0 0 0 0 0 0 0 0 0 0 0 0 0 0 0 0 0 0 0 0 0 0 0 0 0 0 0 0 0 0 0 0 0 0 0 0
-6 -1 -1 -3 -3 0 0 0 0 0 0 0 0 0 0 0 0 0 0 0 0 0 0 0 0 0 0 0 0 0 0 0 0 0 0 0 0 0 0 0 0 0 0 0
-1 0 0 -5 -1 0 0 0 0 0 -6 0 0 0 0 0 0 0 0 0 0 0 0 0 0 0 0 0 0 0 0 0 0 0 0 0 0 0 0 0 0 0 0 0
-4 0 0 0 -3 0 0 0 0 0 0 0 0 0 0 0 0 0 0 0 0 0 0 0 0 0 0 0 0 0 0 0 0 0 0 0 0 0 0 0 0 0 0 0
-9 -2 0 0 0 0 0 0 -15 0 0 0 0 0 0 0 0 0 0 0 0 0 0 0 0 0 0 0 0 0 0 0 0 0 0 0 0 0 0 0 0 0 0 0
-9 -4 0 0 0 -1 0 0 0 0 0 0 0 0 0 0 0 0 0 0 0 0 0 0 0 0 0 0 0 0 0 0 0 0 0 0 0 0 0 0 0 0 0 0
-1 -13 -7 0 0 -1 -7 0 0 0 0 0 0 0 0 0 0 0 0 0 0 0 0 0 0 0 0 0 0 0 0 0 0 0 0 0 0 0 0 0 0 0 0 0
0 0 0 -1 -7 -1 -2 -1 0 0 0 0 0 0 0 0 0 0 0 0 0 0 0 0 0 0 0 0 0 0 0 0 0 0 0 0 0 0 0 0 0 0 0 0
-11 -6 -12 -8 0 -2 -7 -1 0 0 0 0 0 0 -3 0 0 0 0 0 0 0 0 0 0 0 0 0 0 0 0 0 0 0 0 0 0 0 0 0 0 0 0 0
0 -1 -2 -3 -2 -1 -5 -6 -2 -1 0 0 0 0 0 0 0 0 0 0 0 0 0 0 0 0 0 0 0 0 0 0 0 0 0 0 0 0 0 0 0 0 0 0
0 0 0 -4 -5 0 0 0 -8 -2 0 0 0 -1 0 0 0 -2 0 0 0 0 0 0 0 0 0 0 0 0 0 0 0 0 0 0 0 0 0 0 0 0 0 0
0 0 0 0 -9 -3 0 0 -2 -1 -1 0 0 0 0 0 0 0 0 0 0 0 0 0 0 0 0 0 0 0 0 0 0 0 0 0 0 0 0 0 0 0 0 0
0 0 0 0 0 -3 0 0 0 0 0 0 0 0 0 0 0 0 0 0 0 0 0 0 0 0 0 0 0 0 0 0 0 0 0 0 0 0 0 0 0 0 0 0
0 0 0 0 0 0 0 0 0 0 0 0 0 0 0 0 0 0 0 0 0 0 0 0 0 0 0 0 0 0 0 0 0 0 0 0 0 0 0 0 0 0 0 0
0 -1 -6 0 0 0 0 0 0 0 0 0 0 0 0 0 0 0 0 0 0 0 0 0 0 0 0 0 0 0 0 0 0 0 0 0 0 0 0 0 0 0 0 0
0 0 0 -5 0 0 -1 0 0 0 0 0 0 0 0 0 0 0 0 0 0 0 0 0 0 0 -7 0 0 0 0 0 0 0 0 0 0 0 0 0 0 0 0 0
0 0 0 -1 0 0 0 0 0 0 0 0 0 0 0 0 0 0 0 0 0 0 0 -2 -1 0 0 0 0 0 0 0 0 0 0 0 0 0 0 0 0 0 0 0
0 0 0 0 -1 0 -1 0 0 -1 0 0 0 0 0 0 0 0 0 0 0 -1 0 0 -5 0 0 0 0 0 0 0 0 0 0 0 0 0 0 0 0 0 0 0
0 0 0 -1 -1 -9 0 0 0 -1 0 0 0 0 0 0 -10 0 0 0 -1 -6 0 0 0 0 0 0 0 0 0 0 0 0 0 0 0 0 0 0 0 0 0 0
0 -1 -2 -1 0 0 0 0 0 0 0 0 0 0 0 0 0 0 0 -18 -6 -2 -2 -3 0 -1 0 0 0 0 0 0 0 0 0 0 0 0 0 0 0 0 0 0
-2 -3 -3 0 0 0 0 0 0 0 0 0 0 0 0 0 0 0 0 0 0 -3 -5 -6 -1 0 0 0 0 0 0 0 0 0 0 0 0 0 0 0 0 0 0 0
-1 -2 0 0 0 0 0 0 0 0 0 0 0 0 0 0 0 0 0 0 -4 -4 0 -10 0 0 0 0 0 0 0 0 0 0 0 0 0 0 0 0 0 0 0 0
0 0 0 0 0 0 0 0 0 0 0 0 0 0 0 0 -2 0 0 0 0 0 -12 -11 0 0 0 0 0 0 0 0 0 0 0 0 0 0 0 0 0 0 0 0
0 0 0 0 0 0 0 0 0 0 0 0 0 0 0 0 0 0 0 -1 -4 -4 0 0 0 0 0 0 0 0 0 0 0 0 0 0 0 0 0 0 0 0 0 0
0 0 0 0 0 0 0 0 0 0 0 0 0 0 0 -47 0 0 0 -7 0 -6 0 0 0 0 0 0 0 0 0 0 0 0 0 0 0 0 0 0 0 0 0 0
0 0 0 0 0 0 0 0 0 0 0 0 0 0 0 0 -11 -5 -7 0 0 0 0 0 0 0 0 0 0 0 0 0 0 0 0 0 0 0 0 0 0 0 0 0
0 0 0 0 0 0 0 0 0 0 0 0 0 0 0 -5 0 0 0 0 0 0 0 0 0 0 0 0 0 0 0 0 0 0 0 0 0 0 0 0 0 0 0 0
Wind_Speed
31 30 29 29 27 27 24 24 28 21 16 26 29 37 29 27 28 25 26 24 24 22 20 21 21 23 23 19 16 17 17 13 12 16 16 16 16 15 13 13 14 15 15 17
30 28 27 27 25 23 23 27 28 21 21 34 35 32 33 30 28 27 27 28 24 22 22 24 23 21 23 18 19 16 16 16 14 17 20 17 19 16 13 11 12 11 13 15
29 28 28 27 25 21 21 25 29 28 28 29 33 35 36 36 29 31 27 28 25 24 25 24 22 21 20 20 18 18 16 17 17 17 18 15 19 15 10 11 13 12 9 13
28 26 27 26 24 18 20 24 29 25 34 37 33 33 32 36 34 31 28 30 29 26 26 26 25 22 20 20 18 18 19 23 21 19 19 16 17 14 9 8 10 10 14 2
28 25 25 25 25 15 20 23 25 25 30 28 34 36 39 35 32 32 35 35 30 30 27 26 29 24 23 23 23 22 21 23 21 23 21 21 24 20 9 8 10 8 12 10
28 26 24 23 21 17 20 22 23 26 28 33 34 38 39 35 31 32 33 33 35 31 28 26 26 23 22 22 21 23 23 22 22 27 24 24 33 27 14 15 13 6 6 2
29 27 24 23 23 19 21 21 23 26 31 33 38 35 35 39 35 36 28 32 32 31 21 18 17 18 20 21 22 21 19 20 23 25 21 29 26 22 18 12 19 9 13 6
29 28 26 24 23 21 22 23 24 27 31 29 33 37 35 34 35 37 36 35 24 25 29 30 30 29 27 28 25 23 23 21 24 27 28 32 32 23 18 14 29 12 13 7
29 28 28 26 24 23 20 23 22 25 30 33 28 31 34 34 33 34 36 32 28 24 29 33 39 39 33 33 29 24 22 22 25 25 29 31 24 22 18 15 35 17 9 9
28 27 27 26 25 25 22 22 21 26 31 31 29 29 29 31 31 32 30 30 28 29 32 38 40 42 31 36 34 33 29 28 30 28 33 33 29 20 10 18 23 21 12 6
29 29 29 27 25 25 23 25 20 25 33 33 30 28 28 29 29 33 27 28 29 29 36 37 38 38 38 35 32 33 33 30 33 30 35 41 20 17 19 20 22 22 18 4
30 31 30 29 28 26 21 26 21 22 29 33 30 34 33 28 29 30 28 29 27 28 32 36 34 36 35 36 40 32 36 32 32 29 32 26 22 24 23 22 23 22 18 8
32 32 32 32 30 28 23 24 19 22 29 33 36 42 35 33 32 26 31 30 25 23 24 30 35 38 35 41 41 32 35 29 31 29 32 32 29 28 28 25 25 23 18 8
34 33 33 34 33 31 26 22 21 21 24 33 35 28 34 33 33 33 33 38 34 30 29 32 36 39 33 41 36 39 33 30 32 34 31 26 30 31 32 30 26 23 18 11
34 35 35 35 35 35 33 20 20 21 26 29 29 29 33 36 37 37 35 38 39 36 32 32 40 33 32 35 37 43 35 33 35 37 31 32 32 29 28 25 23 20 14 11
30 34 36 36 35 34 23 23 24 17 19 28 34 28 30 31 34 38 40 37 37 37 36 35 32 30 34 38 48 41 39 35 33 35 30 29 31 28 26 25 22 17 14 11
29 33 38 37 36 33 26 22 19 11 11 25 31 32 27 26 32 38 39 37 36 37 38 41 41 41 33 41 52 39 39 37 36 34 30 33 30 30 27 26 22 17 16 12
32 37 38 37 36 34 24 23 4 8 13 20 29 31 31 24 29 34 34 41 38 39 39 38 39 35 38 47 45 44 36 35 37 38 36 36 34 32 30 25 20 18 16 12
28 37 35 32 32 30 25 6 6 12 14 23 28 33 35 24 28 28 30 34 43 36 43 44 38 42 46 46 40 38 36 36 35 34 36 35 35 36 31 25 21 19 17 15
18 26 25 30 24 5 4 9 4 14 15 18 26 24 33 26 28 28 30 31 40 43 44 33 45 54 54 43 41 40 39 38 35 36 37 35 34 31 29 26 21 18 18 18
28 28 29 21 8 16 22 17 10 13 20 19 21 23 30 23 31 32 28 28 33 45 45 42 47 55 48 41 38 35 36 34 34 35 34 31 31 30 29 29 26 23 21 19
27 18 17 18 19 17 21 21 15 7 29 27 17 22 22 25 24 27 28 33 29 39 33 45 55 57 46 42 44 41 38 34 33 32 33 33 33 34 33 30 28 26 24 21
17 21 17 19 22 19 15 12 19 21 5 2 2 17 17 21 22 24 25 30 32 27 34 41 49 51 39 34 33 33 34 34 36 35 34 33 32 29 28 28 26 24 23 21
20 19 9 9 13 25 32 16 12 4 2 1 1 13 20 22 24 26 28 31 31 32 39 44 37 41 40 34 30 28 30 33 36 35 32 33 31 28 26 26 23 22 22 20
21 16 8 12 17 17 14 7 3 4 3 3 14 19 21 24 27 26 27 26 31 29 31 36 44 30 26 30 31 29 28 28 31 33 32 32 31 30 29 27 26 24 22 19
17 17 11 19 6 11 12 5 3 2 4 5 9 15 21 27 27 28 30 29 27 23 23 28 33 35 35 32 30 26 27 26 27 30 32 32 32 33 35 31 27 24 21 19
15 18 14 7 8 6 6 8 7 4 4 9 14 17 24 24 27 34 38 40 27 28 30 27 19 22 26 28 28 28 27 26 25 27 29 32 31 28 27 27 24 22 20 20
Wind_Direction
303 300 298 296 292 291 286 276 271 278 258 249 253 249 254 261 259 263 260 261 258 257 253 251 254 250 255 248 247 250 265 282 279 278 284 277 276 280 284 297 305 313 323 325
299 300 299 296 296 291 282 273 266 279 257 250 250 255 254 258 257 257 258 255 258 260 254 253 254 254 256 251 247 250 251 272 273 281 281 278 272 274 282 298 316 319 327 334
295 296 294 292 293 289 285 273 262 263 255 256 252 250 251 250 257 255 259 256 258 257 254 257 253 252 255 252 254 255 257 264 271 274 284 280 270 266 265 284 301 314 324 338
295 296 295 289 289 291 286 270 266 264 252 249 253 250 255 249 250 252 255 254 252 253 253 251 251 251 250 253 252 258 259 262 266 276 282 281 280 274 245 232 285 311 325 333
295 293 294 290 285 286 280 273 269 266 260 258 248 248 249 251 251 251 250 250 253 252 254 253 249 247 250 251 251 253 261 263 267 267 275 276 274 275 260 252 277 284 315 323
294 290 288 289 284 279 281 277 280 273 262 253 250 249 249 253 252 256 253 253 249 250 252 262 261 256 254 254 248 249 252 257 262 264 269 274 267 267 263 272 277 238 211 210
290 289 284 284 282 277 274 279 276 273 263 255 251 254 253 251 251 250 259 254 252 255 259 266 265 262 257 254 255 253 249 254 262 265 269 267 272 280 276 255 280 234 290 306
286 285 283 278 279 277 274 276 274 268 264 267 262 253 253 256 253 250 253 255 261 256 255 251 249 251 251 251 253 252 254 253 260 261 263 269 267 274 278 279 275 212 206 250
285 284 283 279 272 274 276 275 272 271 265 262 268 264 253 252 254 251 252 258 257 262 250 244 242 241 244 244 246 253 254 258 258 262 263 264 273 278 279 289 268 300 205 209
285 284 282 281 275 269 271 278 272 266 265 266 264 263 261 257 254 254 254 255 256 247 247 242 242 242 247 243 240 243 247 253 253 259 262 266 266 282 284 279 285 303 302 235
283 280 279 280 277 272 266 270 268 267 261 264 266 264 264 263 257 250 257 252 252 245 242 244 243 246 243 246 245 244 244 247 253 258 258 256 270 268 271 287 293 299 309 290
280 277 276 275 275 273 262 267 268 269 267 265 269 264 263 264 262 258 256 253 255 251 245 246 248 248 245 242 244 249 246 249 254 255 263 271 270 269 270 287 291 297 309 310
275 273 270 268 269 271 262 263 265 267 268 270 265 258 262 260 258 259 253 254 259 256 262 252 250 250 246 244 245 248 250 251 256 259 264 264 265 267 272 280 284 290 299 318
263 264 263 261 261 264 266 261 257 262 271 265 267 275 262 261 256 255 253 251 259 268 266 255 252 251 253 248 252 247 251 247 252 258 262 271 268 269 274 274 278 283 290 295
234 242 250 251 253 251 256 266 260 253 262 265 268 277 272 260 254 254 254 252 252 254 259 256 249 256 258 255 252 247 246 250 248 257 262 265 269 277 281 275 278 276 281 286
219 227 233 242 239 242 268 267 262 244 264 269 266 276 274 269 258 252 250 250 251 253 254 256 258 259 257 255 249 250 250 252 255 259 265 265 268 277 281 278 277 276 272 275
212 219 233 236 239 246 258 271 277 202 265 267 268 269 276 278 264 254 251 249 251 252 252 253 255 254 263 256 248 254 251 252 255 259 264 264 267 272 278 277 276 270 270 269
209 222 229 233 237 247 261 262 269 168 264 273 265 267 273 275 269 257 250 248 248 250 251 253 252 254 254 253 254 250 254 255 255 256 259 263 267 270 272 274 270 264 259 254
197 240 245 251 249 249 256 226 161 271 280 267 268 262 265 275 270 267 258 248 245 250 247 247 249 249 248 248 256 254 251 252 256 257 259 261 263 264 267 267 264 256 253 249
246 248 249 245 249 210 184 247 233 275 278 291 272 271 264 274 271 270 262 254 246 244 244 248 248 249 248 251 256 260 256 254 254 256 258 260 261 262 262 261 261 256 250 251
230 230 235 247 178 241 242 251 262 283 279 282 278 268 269 279 267 266 263 265 252 246 244 244 247 247 247 248 251 258 256 253 253 256 258 259 259 258 261 262 261 259 258 253
217 221 233 228 244 260 254 254 264 293 258 217 281 269 277 276 275 268 261 254 267 251 246 245 246 246 251 252 250 250 252 256 253 255 259 259 259 260 264 266 262 261 260 260
206 226 237 236 247 261 254 223 257 265 136 80 114 279 284 268 271 270 262 249 258 270 248 250 249 247 249 248 248 247 247 250 255 255 257 259 261 263 259 261 265 262 260 259
222 226 200 228 265 255 242 178 191 200 182 330 130 293 273 267 267 264 254 253 263 267 253 248 256 247 243 244 246 248 249 252 253 254 256 256 257 256 261 262 263 262 258 255
227 236 229 180 268 275 271 294 252 211 210 307 289 277 272 266 265 257 248 253 251 267 263 255 243 247 239 240 244 248 252 253 254 254 255 252 254 256 260 262 264 263 259 250
238 252 266 265 262 283 288 279 262 254 289 321 297 280 273 264 259 246 240 243 252 260 293 290 252 242 246 247 246 251 256 257 256 255 256 255 256 259 263 264 260 258 252 248
256 262 275 286 290 279 276 287 270 270 244 271 280 278 273 265 251 242 235 237 257 262 281 277 262 246 246 246 249 252 253 254 257 260 260 260 261 261 261 259 253 248 253 254